Вернуться в каталог

STARLINK-32573

АктивенСвязьVLEO
NORAD 61725·PAYLOAD·🇺🇸 United States

Запущен Oct 30, 2024 с Cape Canaveral Space Force Station

Loading…

Ближайшие Пролёты (ближайшие 24 часа)

TLE

СвежийSource: CelesTrak SupGP

Эпоха: Sep 15, 2026, 03:30 UTC

1 61725C 24196U   26258.14631944  .00013773  00000+0  40691-3 0  2589
2 61725  53.1590 298.9339 0001447  85.6016  38.2588 15.34384519    19

Отслеживайте STARLINK-32573 в реальном времени с AllMySat

Download on the App Store